[[{"header":{"parameterUnit":"m.s-1","parameterCategory":2,"la1":30.2991,"la2":30.254,"lo1":-89.0895,"lo2":-89.0444,"dy":0.0017,"dx":0.0017,"nx":28,"ny":28,"refTime":"2024-12-16T09:00:00:Z","depth":"0","parameterNumber":2,"parameterNumberName":"U-component_of_CURRENTS"},"data":[0,0,0,0,0,0,0,0,0,0,0,0,0,0,0,0,0,0,0,0,0,0,0,0,0,0,0,0,0,0,0,0,0,0,0,0,0,0,0,0,0,0,0,0,0,0,0,0,0,0,0,0,0,0,0,0,0,0,0.4567,0.4567,0,0.4597,0.4597,0.4597,0.457,0.457,0.457,0.4569,0.4552,0.4552,0.4552,0,0,0,0,0,0,0,0,0,0,0,0,0,0.445,0.4452,0.4566,0.4568,0.4569,0.4597,0.4597,0.4597,0.4571,0.457,0.457,0.4569,0.4552,0.4552,0.4552,0,0,0,0,0,0,0,0,0,0,0,0,0,0.4485,0.4453,0.4566,0.4565,0.4566,0.4597,0.4597,0.4596,0.4571,0.457,0.457,0.4569,0.4552,0.4552,0.4552,0.4561,0,0,0.4551,0.4551,0,0,0,0,0,0,0,0,0.4483,0.4489,0.4564,0.4565,0.4566,0.4586,0.455,0.4585,0.4571,0.456,0.4569,0.4569,0.4565,0.4563,0.456,0.456,0.456,0.4551,0.4551,0.4551,0.4551,0,0,0,0,0,0,0,0.4481,0.4487,0.457,0.4565,0.4567,0.4552,0.4555,0.4556,0.4558,0.4561,0.4561,0.4578,0.4564,0.456,0.4559,0.4559,0.4551,0.4551,0.4551,0.4551,0.4629,0.4631,0,0,0,0,0,0,0.4496,0.4485,0.457,0.4572,0.4532,0.4555,0.4559,0.4574,0.4559,0.4559,0.4578,0.4577,0.456,0.4559,0.4558,0.4626,0.4551,0.4551,0.455,0.4627,0.4629,0.4632,0,0,0,0,0,0,0.4493,0.4503,0.4569,0.4535,0.4544,0.4558,0.4575,0.4575,0.4582,0.4574,0.4571,0.4587,0.456,0.4559,0.4569,0.4623,0.455,0.455,0.4624,0.4627,0.463,0.4724,0,0,0,0,0,0,0.449,0.4502,0.4508,0.4537,0.4547,0.461,0.4577,0.4576,0.4596,0.4594,0.4581,0.4578,0.4559,0.457,0.4569,0.4621,0.455,0.4621,0.4625,0.4629,0.4718,0.473,0.474,0,0,0,0,0,0.4485,0.4506,0.4508,0.4518,0.4558,0.4613,0.4616,0.4618,0.4597,0.4617,0.4597,0.4579,0.4596,0.4571,0.4569,0.4623,0.4619,0.4624,0.4629,0.4713,0.4728,0.474,0,0,0,0,0,0,0.4438,0.4507,0.4509,0.4543,0.4585,0.4612,0.4629,0.4629,0.4627,0.4619,0.4593,0.459,0.4629,0.4609,0.4582,0.4659,0.4611,0.4616,0.4676,0.4689,0.47,0.4672,0.455,0,0,0,0,0,0.4438,0.4483,0.4535,0.4561,0.4587,0.4607,0.4624,0.4635,0.4646,0.4644,0.463,0.4626,0.4648,0.4652,0.4661,0.469,0.4693,0.4729,0.474,0.4749,0.4728,0.4791,0.4806,0.4648,0.4648,0.4648,0,0,0.4427,0.447,0.4493,0.4556,0.4583,0.4628,0.4615,0.466,0.4682,0.4643,0.4652,0.4664,0.4666,0.4707,0.4723,0.4695,0.4805,0.4756,0.4764,0.4736,0.4798,0.4813,0.4827,0.4651,0.465,0.465,0,0,0.4433,0.447,0.4509,0.4565,0.463,0.4648,0.4668,0.4705,0.4707,0.473,0.472,0.4754,0.476,0.4783,0.4794,0.487,0.4866,0.4888,0.4915,0.4979,0.4993,0.5004,0.5062,0.5078,0.4889,0.4889,0.4889,0,0.4402,0.4464,0.4526,0.4586,0.4624,0.4662,0.4702,0.4726,0.4752,0.4757,0.4744,0.479,0.4798,0.4862,0.4889,0.4896,0.4923,0.4866,0.4994,0.5005,0.5015,0.5071,0.5087,0.4894,0.4894,0.4893,0.4893,0,0.4442,0.45,0.4534,0.4618,0.4671,0.472,0.4777,0.4807,0.4808,0.4819,0.4871,0.4888,0.4913,0.4947,0.4933,0.5024,0.502,0.5007,0.4958,0.5036,0.5091,0.5107,0.4901,0.49,0.4898,0.4897,0,0,0.4341,0.4518,0.4525,0.4583,0.4692,0.4737,0.4796,0.4846,0.4883,0.4906,0.4939,0.4995,0.5001,0.5014,0.5035,0.5083,0.5198,0.507,0.5071,0.5123,0.5343,0.5216,0.522,0.5212,0.5214,0.5216,0.5365,0,0.4333,0.4433,0.4528,0.4623,0.4684,0.477,0.4826,0.4888,0.4924,0.497,0.5001,0.5049,0.5032,0.5067,0.5114,0.5171,0.5236,0.5158,0.526,0.5262,0.5136,0.5232,0.4903,0.4995,0.5379,0.5381,0.5383,0,0.4334,0.4403,0.4482,0.4645,0.4677,0.4736,0.4839,0.4902,0.4991,0.5026,0.5078,0.51,0.5174,0.5153,0.528,0.5232,0.5288,0.5329,0.5336,0.5181,0.5161,0.4972,0.5007,0.4863,0.5406,0.5404,0.5402,0,0.4233,0.4382,0.4431,0.4488,0.466,0.4706,0.4783,0.4896,0.4949,0.5062,0.5107,0.5189,0.5233,0.5311,0.5371,0.5344,0.5505,0.5486,0.5433,0.5426,0.514,0.5102,0.5029,0.559,0.559,0.5589,0.5589,0,0.4207,0.4266,0.4391,0.4435,0.4497,0.4652,0.4721,0.483,0.4958,0.5025,0.512,0.519,0.5273,0.5356,0.5412,0.5457,0.5548,0.5443,0.5455,0.5166,0.5131,0.4984,0.4951,0.5595,0.5593,0.5592,0.5591,0,0.4144,0.4219,0.4294,0.4429,0.4464,0.4515,0.4667,0.4738,0.4886,0.4983,0.502,0.5192,0.5318,0.5398,0.554,0.5496,0.5397,0.5574,0.5221,0.5185,0.4938,0.4922,0.4742,0.4613,0.5522,0.5519,0.5517,0,0.4121,0.4151,0.4244,0.4271,0.4338,0.4419,0.4484,0.4659,0.4738,0.4979,0.5021,0.5189,0.5277,0.5426,0.5384,0.5445,0.535,0.5177,0.5048,0.4876,0.4872,0.475,0.4647,0.4738,0.473,0.4723,0.4718,0,0.4075,0.4098,0.4152,0.419,0.4243,0.4311,0.442,0.4463,0.4679,0.477,0.495,0.5054,0.5176,0.5066,0.5112,0.5106,0.4863,0.5041,0.4947,0.431,0.4086,0.3981,0.4715,0.4659,0.4664,0.4669,0.4672,0.4674,0.4008,0.4019,0.4065,0.41,0.4157,0.4215,0.4199,0.4327,0.4411,0.4513,0.4748,0.4776,0.4742,0.4743,0.4723,0.4389,0.451,0.4203,0.4227,0.4144,0.3894,0.4496,0.4395,0.4399,0.4403,0.4406,0.4409,0,0.3901,0.3941,0.3982,0.3998,0.4002,0.4085,0.4155,0.4101,0.4105,0.4251,0.4337,0.4219,0.4083,0.404,0.3747,0.357,0.3432,0.3478,0.3212,0.318,0.3767,0.3602,0.3217,0.3217,0.3218,0.3218,0.3218,0.3218,0.3852,0.384,0.3863,0.3816,0.3836,0.3763,0.3754,0.3714,0.3744,0.3638,0.3526,0.3562,0.3531,0.3354,0.3062,0.2973,0.2791,0.2616,0.2764,0.3148,0.3216,0.3281,0.3116,0.2636,0.2635,0.1947,0.1942,0.1938]},{"header":{"parameterUnit":"m.s-1","parameterCategory":2,"la1":30.2991,"la2":30.254,"lo1":-89.0895,"lo2":-89.0444,"dy":0.0017,"dx":0.0017,"nx":28,"ny":28,"refTime":"2024-12-16T09:00:00:Z","depth":"0","parameterNumber":3,"parameterNumberName":"V-component_of_CURRENTS"},"data":[0,0,0,0,0,0,0,0,0,0,0,0,0,0,0,0,0,0,0,0,0,0,0,0,0,0,0,0,0,0,0,0,0,0,0,0,0,0,0,0,0,0,0,0,0,0,0,0,0,0,0,0,0,0,0,0,0,0,-0.0361,-0.0361,0,-0.0398,-0.0398,-0.0398,-0.0406,-0.0406,-0.0406,-0.0406,-0.046,-0.0462,-0.0463,0,0,0,0,0,0,0,0,0,0,0,0,0,-0.0283,-0.0284,-0.0361,-0.0361,-0.0362,-0.0398,-0.0398,-0.0398,-0.0406,-0.0406,-0.0406,-0.0406,-0.046,-0.0461,-0.0463,0,0,0,0,0,0,0,0,0,0,0,0,0,-0.0315,-0.0285,-0.0361,-0.0372,-0.0374,-0.0398,-0.0398,-0.0398,-0.0406,-0.0406,-0.0406,-0.0406,-0.0459,-0.0461,-0.0463,-0.0477,0,0,-0.047,-0.0471,0,0,0,0,0,0,0,0,-0.0313,-0.0318,-0.037,-0.0372,-0.0373,-0.04,-0.0391,-0.0426,-0.0406,-0.0391,-0.0406,-0.0406,-0.0443,-0.0447,-0.045,-0.048,-0.0482,-0.047,-0.0472,-0.0473,-0.0473,0,0,0,0,0,0,0,-0.0311,-0.0316,-0.0372,-0.0371,-0.0373,-0.0371,-0.0376,-0.0397,-0.0415,-0.0392,-0.0393,-0.0402,-0.0444,-0.0447,-0.0451,-0.0483,-0.047,-0.0472,-0.0473,-0.0474,-0.0521,-0.0521,0,0,0,0,0,0,-0.0314,-0.0314,-0.0371,-0.0374,-0.0346,-0.0373,-0.0378,-0.0389,-0.0414,-0.0419,-0.0402,-0.0402,-0.0444,-0.0448,-0.0453,-0.0465,-0.0473,-0.0475,-0.0476,-0.0521,-0.0521,-0.0521,0,0,0,0,0,0,-0.0312,-0.0318,-0.037,-0.0347,-0.0354,-0.0375,-0.0387,-0.039,-0.0394,-0.0422,-0.0426,-0.0404,-0.0444,-0.045,-0.0461,-0.0467,-0.0476,-0.0478,-0.0522,-0.0521,-0.0521,-0.0493,0,0,0,0,0,0,-0.0309,-0.0317,-0.0319,-0.0347,-0.0355,-0.0379,-0.0387,-0.0391,-0.0401,-0.0401,-0.0425,-0.043,-0.0444,-0.0457,-0.0463,-0.047,-0.0479,-0.0522,-0.0522,-0.0521,-0.0494,-0.0491,-0.049,0,0,0,0,0,-0.0306,-0.0309,-0.0319,-0.0325,-0.0359,-0.0379,-0.0382,-0.0395,-0.0401,-0.0399,-0.041,-0.0429,-0.0461,-0.0459,-0.0466,-0.0474,-0.0522,-0.0522,-0.0521,-0.0494,-0.0492,-0.049,0,0,0,0,0,0,-0.0274,-0.0312,-0.0322,-0.0336,-0.0355,-0.0382,-0.0384,-0.0395,-0.0403,-0.0403,-0.0426,-0.0431,-0.0445,-0.0461,-0.0458,-0.0487,-0.0496,-0.0498,-0.0474,-0.0472,-0.047,-0.0425,-0.0481,0,0,0,0,0,-0.0269,-0.0283,-0.0316,-0.0325,-0.0336,-0.036,-0.0368,-0.0379,-0.0395,-0.0399,-0.0412,-0.043,-0.045,-0.0461,-0.0478,-0.0492,-0.048,-0.0503,-0.0501,-0.0499,-0.0467,-0.0471,-0.0466,-0.0521,-0.0521,-0.0521,0,0,-0.0264,-0.0282,-0.0293,-0.0319,-0.0336,-0.0339,-0.0364,-0.0378,-0.037,-0.0405,-0.0394,-0.0424,-0.0452,-0.0465,-0.0473,-0.0479,-0.0475,-0.0499,-0.0497,-0.0465,-0.047,-0.0465,-0.046,-0.0521,-0.0521,-0.0521,0,0,-0.0247,-0.0273,-0.0273,-0.0292,-0.0316,-0.0325,-0.0329,-0.0353,-0.0353,-0.0355,-0.038,-0.0403,-0.0428,-0.0446,-0.0462,-0.0459,-0.0465,-0.0478,-0.0433,-0.0438,-0.0433,-0.0429,-0.0395,-0.0387,-0.0478,-0.0478,-0.0478,0,-0.0227,-0.0235,-0.0274,-0.0277,-0.0282,-0.0316,-0.0307,-0.0316,-0.0334,-0.0327,-0.0345,-0.0376,-0.0414,-0.0424,-0.0426,-0.0454,-0.0441,-0.0442,-0.0434,-0.0429,-0.0425,-0.0392,-0.0384,-0.0476,-0.0476,-0.0476,-0.0477,0,-0.0206,-0.0216,-0.0219,-0.0228,-0.0241,-0.0241,-0.0264,-0.0262,-0.0269,-0.0276,-0.0282,-0.0326,-0.0343,-0.0373,-0.0399,-0.0396,-0.039,-0.0432,-0.0436,-0.0417,-0.0384,-0.0376,-0.0474,-0.0475,-0.0475,-0.0475,0,0,-0.0141,-0.0188,-0.0185,-0.0184,-0.0212,-0.0215,-0.0208,-0.0199,-0.0184,-0.0206,-0.0177,-0.0234,-0.0261,-0.0278,-0.0327,-0.0333,-0.0309,-0.0363,-0.0364,-0.0319,-0.0282,-0.025,-0.0238,-0.0352,-0.0351,-0.035,-0.0266,0,-0.0097,-0.0082,-0.012,-0.0104,-0.0101,-0.0137,-0.0128,-0.0134,-0.0137,-0.0119,-0.0158,-0.0162,-0.0226,-0.0242,-0.0258,-0.0295,-0.0288,-0.0324,-0.0313,-0.0311,-0.0279,-0.0229,-0.0202,-0.0122,-0.0258,-0.0257,-0.0256,0,-0.0055,-0.0047,-0.0018,-0.0042,-0.0043,-0.0033,-0.0017,-0.0022,-0.0024,-0.0027,-0.0037,-0.007,-0.008,-0.0144,-0.0165,-0.0184,-0.0218,-0.0244,-0.0243,-0.021,-0.0265,-0.0166,-0.0103,-0.025,-0.0244,-0.0245,-0.0246,0,0.0025,0.0019,0.0056,0.0048,0.0024,0.0041,0.0032,0.002,0.0038,0.0037,0.0061,0.0027,0.0036,-0.0019,-0.0072,-0.0122,-0.0068,-0.0158,-0.0149,-0.0146,-0.0115,-0.0111,-0.018,-0.0157,-0.0157,-0.0157,-0.0157,0,0.0084,0.0103,0.0101,0.0117,0.0165,0.0105,0.0156,0.0133,0.0139,0.0198,0.0113,0.0175,0.0068,0.0077,-0.0005,-0.0017,-0.0019,-0.01,-0.0116,-0.0103,-0.01,-0.0221,-0.0323,-0.0154,-0.0155,-0.0155,-0.0156,0,0.0142,0.0139,0.018,0.0192,0.0199,0.0229,0.0243,0.0278,0.025,0.0333,0.0342,0.032,0.0341,0.0254,0.0202,0.0095,-0.0013,0.0044,0.0094,0.0082,-0.0086,-0.0186,-0.023,-0.0291,0.0055,0.0057,0.0058,0,0.0177,0.0204,0.0257,0.0297,0.0307,0.0346,0.0379,0.0354,0.0408,0.0451,0.052,0.0544,0.0638,0.0572,0.0399,0.0298,0.0108,0.0191,0.008,-0.0051,-0.0176,-0.0263,-0.0319,0.0138,0.014,0.0142,0.0143,0,0.0247,0.0268,0.0309,0.0397,0.0455,0.0511,0.0564,0.0635,0.0641,0.0735,0.0873,0.0949,0.0885,0.0813,0.062,0.0501,0.008,0.0216,0.0055,-0.0115,-0.0187,-0.0267,0.0056,0.0155,0.0154,0.0153,0.0153,0.0152,0.0317,0.036,0.0423,0.0505,0.0573,0.0673,0.0754,0.0857,0.0996,0.1174,0.1202,0.1398,0.1154,0.0919,0.0696,0.0256,0.0219,0.0093,-0.001,-0.008,-0.0164,0.0216,0.0299,0.0299,0.0298,0.0298,0.0298,0,0.0402,0.044,0.0519,0.0624,0.0719,0.073,0.0874,0.099,0.1221,0.1464,0.1644,0.1702,0.1404,0.1004,0.04,0.0074,-0.0088,-0.0117,-0.0264,-0.0308,0.0022,-0.0004,0.0048,0.0049,0.0049,0.0049,0.0049,0.0049,0.045,0.0534,0.0567,0.0738,0.0811,0.095,0.105,0.1251,0.1462,0.1822,0.203,0.215,0.1817,0.0695,-0.0043,-0.021,-0.0491,-0.0515,-0.0654,-0.0475,-0.0465,-0.0456,-0.0505,-0.0559,-0.0559,-0.0943,-0.0947,-0.095]}],[{"header":{"parameterUnit":"m.s-1","parameterCategory":2,"la1":30.2991,"la2":30.254,"lo1":-89.0895,"lo2":-89.0444,"dy":0.0017,"dx":0.0017,"nx":28,"ny":28,"refTime":"2024-12-16T09:00:00:Z","depth":"2","parameterNumber":2,"parameterNumberName":"U-component_of_CURRENTS"},"data":[0,0,0,0,0,0,0,0,0,0,0,0,0,0,0,0,0,0,0,0,0,0,0,0,0,0,0,0,0,0,0,0,0,0,0,0,0,0,0,0,0,0,0,0,0,0,0,0,0,0,0,0,0,0,0,0,0,0,0.295,0.2951,0,0.2959,0.2959,0.2958,0.2941,0.2941,0.2941,0.2941,0.2912,0.2912,0.2911,0,0,0,0,0,0,0,0,0,0,0,0,0,0.2879,0.2881,0.295,0.2951,0.2951,0.2959,0.2959,0.2958,0.2942,0.2941,0.2941,0.2941,0.2913,0.2912,0.2911,0,0,0,0,0,0,0,0,0,0,0,0,0,0.2898,0.2881,0.295,0.2946,0.2946,0.2959,0.2959,0.2958,0.2942,0.2941,0.2941,0.294,0.2913,0.2912,0.2911,0.2914,0,0,0.2909,0.2909,0,0,0,0,0,0,0,0,0.2897,0.29,0.2946,0.2946,0.2946,0.2952,0.2923,0.2943,0.2942,0.294,0.2941,0.294,0.2925,0.2923,0.2921,0.2913,0.2912,0.2909,0.2908,0.2908,0.2908,0,0,0,0,0,0,0,0.2896,0.29,0.295,0.2947,0.2947,0.293,0.2932,0.2927,0.2931,0.294,0.294,0.2946,0.2924,0.2922,0.292,0.2911,0.2909,0.2908,0.2908,0.2907,0.2961,0.2963,0,0,0,0,0,0,0.2904,0.2899,0.295,0.2951,0.2924,0.2932,0.2935,0.2948,0.2932,0.293,0.2946,0.2945,0.2923,0.2921,0.2919,0.2972,0.2908,0.2907,0.2907,0.2959,0.2962,0.2964,0,0,0,0,0,0,0.2903,0.2909,0.295,0.2927,0.2931,0.2935,0.2949,0.2948,0.2943,0.2938,0.2935,0.2942,0.2923,0.292,0.2928,0.2968,0.2907,0.2906,0.2957,0.296,0.2963,0.3045,0,0,0,0,0,0,0.2901,0.2909,0.2916,0.2928,0.2933,0.2946,0.295,0.2949,0.295,0.2948,0.2933,0.2931,0.2922,0.2929,0.2927,0.2966,0.2906,0.2955,0.2958,0.2962,0.304,0.305,0.3059,0,0,0,0,0,0.2898,0.2902,0.2917,0.2923,0.2946,0.2945,0.2945,0.2944,0.295,0.2939,0.2951,0.2931,0.2951,0.2929,0.2926,0.2967,0.2953,0.2957,0.2962,0.3035,0.3048,0.3059,0,0,0,0,0,0,0.2885,0.2902,0.2917,0.2931,0.2937,0.2943,0.2951,0.2944,0.2945,0.2966,0.2944,0.2942,0.2966,0.2954,0.2931,0.2995,0.2953,0.2957,0.301,0.3022,0.3031,0.3032,0.2905,0,0,0,0,0,0.2887,0.289,0.2909,0.2921,0.2937,0.2946,0.2948,0.2955,0.2962,0.2962,0.2962,0.2974,0.2983,0.299,0.2993,0.302,0.3018,0.3048,0.3058,0.3066,0.3067,0.3095,0.3107,0.2978,0.2978,0.2978,0,0,0.2879,0.2899,0.2895,0.2917,0.2938,0.2951,0.2946,0.2968,0.2985,0.2961,0.2995,0.3,0.2995,0.3034,0.3045,0.3028,0.3109,0.3072,0.3079,0.3075,0.3101,0.3113,0.3125,0.2981,0.298,0.298,0,0,0.2869,0.29,0.2898,0.2912,0.2949,0.2964,0.2969,0.2995,0.3016,0.3045,0.3046,0.3075,0.3083,0.3101,0.3105,0.3167,0.3153,0.3175,0.3231,0.3259,0.327,0.3279,0.3319,0.3331,0.3187,0.3188,0.3188,0,0.286,0.288,0.2895,0.2912,0.2936,0.2969,0.2987,0.3011,0.3035,0.3064,0.3067,0.312,0.3118,0.3163,0.3196,0.3189,0.3205,0.3186,0.3271,0.328,0.3288,0.3327,0.3339,0.3192,0.3191,0.3191,0.3191,0,0.286,0.2875,0.2889,0.2924,0.2941,0.2974,0.3019,0.3053,0.3096,0.3122,0.3187,0.3207,0.3237,0.3253,0.3244,0.3311,0.3305,0.3274,0.324,0.3306,0.3343,0.3355,0.3198,0.3197,0.3195,0.3194,0,0,0.2826,0.2877,0.2878,0.2892,0.2966,0.2968,0.3038,0.3092,0.3131,0.3192,0.3249,0.3298,0.3328,0.3336,0.3348,0.3381,0.3465,0.3363,0.3363,0.34,0.3546,0.345,0.3452,0.3451,0.3453,0.3454,0.3558,0,0.2825,0.2854,0.2886,0.2904,0.2927,0.2992,0.3031,0.3088,0.3164,0.3229,0.33,0.3348,0.3356,0.3387,0.3431,0.3453,0.3494,0.344,0.3478,0.3479,0.3382,0.3461,0.3169,0.3228,0.3569,0.3571,0.3572,0,0.2815,0.2834,0.2869,0.2898,0.2915,0.2938,0.303,0.3077,0.3191,0.3242,0.334,0.3392,0.3487,0.3466,0.3568,0.3537,0.3553,0.3563,0.3566,0.3449,0.3402,0.3212,0.3235,0.359,0.3589,0.3587,0.3586,0,0.2775,0.2811,0.2842,0.2859,0.2906,0.2943,0.2992,0.3095,0.3145,0.3279,0.3329,0.3444,0.3525,0.3566,0.3624,0.3604,0.3712,0.3681,0.361,0.3605,0.3346,0.3314,0.3731,0.3731,0.3731,0.373,0.373,0,0.2765,0.2755,0.2825,0.283,0.2853,0.2917,0.2982,0.3036,0.3152,0.3219,0.3346,0.3416,0.3554,0.3641,0.3656,0.3683,0.3747,0.3636,0.3625,0.337,0.3339,0.3631,0.3618,0.3734,0.3733,0.3733,0.3732,0,0.2695,0.2742,0.275,0.2814,0.2834,0.286,0.2958,0.3007,0.3114,0.3222,0.3266,0.3435,0.3554,0.3655,0.3748,0.3725,0.374,0.3718,0.3422,0.3374,0.3612,0.3602,0.3672,0.3669,0.3667,0.3665,0.3664,0,0.2661,0.267,0.2733,0.2742,0.2773,0.2833,0.2878,0.2981,0.3052,0.3214,0.326,0.3426,0.3501,0.3617,0.3616,0.3638,0.3712,0.3366,0.326,0.3623,0.3607,0.36,0.3594,0.2971,0.2964,0.2959,0.2954,0,0.258,0.2616,0.2632,0.2676,0.2716,0.2742,0.2833,0.2858,0.3002,0.3066,0.3152,0.3217,0.3375,0.3283,0.3342,0.3306,0.3341,0.3249,0.3705,0.3024,0.2968,0.2951,0.2966,0.2903,0.2908,0.2912,0.2914,0.2916,0.2522,0.252,0.2566,0.2583,0.2617,0.2621,0.2614,0.2701,0.2732,0.2791,0.2957,0.2954,0.3037,0.297,0.2889,0.2849,0.3082,0.2936,0.2951,0.2974,0.2866,0.2808,0.2695,0.2698,0.2702,0.2704,0.2707,0,0.2441,0.245,0.2466,0.246,0.244,0.2515,0.2544,0.2496,0.2474,0.2577,0.2613,0.2422,0.2373,0.2454,0.2308,0.2318,0.2278,0.2226,0.2141,0.2195,0.2242,0.2094,0.1719,0.1716,0.1713,0.171,0,0,0.2401,0.2365,0.2364,0.2274,0.2288,0.2197,0.219,0.2138,0.215,0.2074,0.2066,0.2256,0.2365,0.2004,0.1969,0.1813,0.1984,0.1742,0.2537,0.249,0.2533,0.2661,0.2495,0,0,0,0,0]},{"header":{"parameterUnit":"m.s-1","parameterCategory":2,"la1":30.2991,"la2":30.254,"lo1":-89.0895,"lo2":-89.0444,"dy":0.0017,"dx":0.0017,"nx":28,"ny":28,"refTime":"2024-12-16T09:00:00:Z","depth":"2","parameterNumber":3,"parameterNumberName":"V-component_of_CURRENTS"},"data":[0,0,0,0,0,0,0,0,0,0,0,0,0,0,0,0,0,0,0,0,0,0,0,0,0,0,0,0,0,0,0,0,0,0,0,0,0,0,0,0,0,0,0,0,0,0,0,0,0,0,0,0,0,0,0,0,0,0,0.0209,0.0209,0,0.0183,0.0182,0.0182,0.0153,0.0153,0.0152,0.0152,0.0127,0.0127,0.0126,0,0,0,0,0,0,0,0,0,0,0,0,0,0.0198,0.0199,0.0209,0.0209,0.0209,0.0183,0.0182,0.0182,0.0153,0.0153,0.0152,0.0152,0.0127,0.0127,0.0126,0,0,0,0,0,0,0,0,0,0,0,0,0,0.019,0.0199,0.0209,0.0192,0.019,0.0183,0.0182,0.0182,0.0153,0.0153,0.0152,0.0152,0.0127,0.0127,0.0126,0.0132,0,0,0.0125,0.0124,0,0,0,0,0,0,0,0,0.019,0.019,0.0195,0.0193,0.0191,0.0172,0.017,0.0166,0.0153,0.0166,0.0152,0.0152,0.0143,0.0142,0.0136,0.0131,0.013,0.0125,0.0124,0.0124,0.0124,0,0,0,0,0,0,0,0.0191,0.0191,0.0197,0.0195,0.0193,0.0174,0.0172,0.0168,0.0157,0.0165,0.0163,0.0162,0.0142,0.0136,0.0135,0.0129,0.0125,0.0124,0.0124,0.0123,0.0118,0.0119,0,0,0,0,0,0,0.0199,0.0192,0.0198,0.0197,0.0191,0.0174,0.0173,0.0178,0.0157,0.0153,0.0163,0.0161,0.0138,0.0136,0.0134,0.0148,0.0124,0.0123,0.0123,0.0118,0.0118,0.0119,0,0,0,0,0,0,0.0199,0.02,0.0199,0.0194,0.0193,0.0176,0.0181,0.0177,0.0175,0.0155,0.0152,0.0164,0.0137,0.0135,0.0134,0.0147,0.0123,0.0123,0.0118,0.0118,0.0119,0.0172,0,0,0,0,0,0,0.0199,0.0201,0.0209,0.0195,0.0193,0.0206,0.0181,0.0177,0.0175,0.0173,0.0156,0.0152,0.0137,0.0135,0.0133,0.0146,0.0122,0.0118,0.0118,0.0118,0.017,0.0174,0.0177,0,0,0,0,0,0.0199,0.022,0.021,0.0211,0.0206,0.0207,0.0205,0.019,0.0176,0.0183,0.0165,0.0153,0.0136,0.0135,0.0133,0.0145,0.0117,0.0118,0.0118,0.0168,0.0173,0.0177,0,0,0,0,0,0,0.0218,0.0219,0.0207,0.0226,0.022,0.0203,0.0209,0.0196,0.0187,0.0181,0.016,0.0156,0.016,0.0144,0.0143,0.0143,0.0123,0.0123,0.0161,0.0166,0.017,0.0186,0.0122,0,0,0,0,0,0.0227,0.0243,0.0233,0.0247,0.0245,0.0226,0.0225,0.0213,0.0202,0.0197,0.0183,0.0166,0.016,0.0156,0.0147,0.0151,0.0132,0.0155,0.0159,0.0162,0.0173,0.0156,0.016,0.012,0.012,0.012,0,0,0.0236,0.024,0.0248,0.0252,0.0243,0.0256,0.0224,0.0226,0.0237,0.0197,0.0206,0.0183,0.0164,0.0166,0.0166,0.0155,0.0161,0.0163,0.0166,0.0175,0.0157,0.0161,0.0164,0.0121,0.012,0.012,0,0,0.0271,0.0267,0.0293,0.0295,0.0291,0.0279,0.0283,0.0268,0.0261,0.0262,0.0236,0.0222,0.021,0.0199,0.0193,0.0212,0.0184,0.0204,0.0238,0.0221,0.0225,0.0227,0.0201,0.0201,0.0204,0.0204,0.0205,0,0.0283,0.0315,0.03,0.0325,0.0335,0.0295,0.0323,0.0312,0.0298,0.03,0.0272,0.0249,0.0228,0.0238,0.0237,0.0224,0.0203,0.0224,0.0228,0.023,0.0232,0.0204,0.0204,0.0207,0.0207,0.0206,0.0206,0,0.0336,0.0362,0.0377,0.0397,0.0404,0.0419,0.0404,0.0405,0.0382,0.0366,0.0361,0.032,0.0307,0.0293,0.027,0.0276,0.0252,0.0237,0.022,0.0239,0.0208,0.0207,0.0211,0.021,0.0209,0.0208,0,0,0.0365,0.0408,0.0413,0.0442,0.0445,0.0459,0.0476,0.0484,0.0504,0.0459,0.0478,0.0436,0.0397,0.0386,0.0349,0.0326,0.0311,0.0287,0.0285,0.0268,0.0266,0.0235,0.023,0.0294,0.0294,0.0294,0.0236,0,0.0411,0.0479,0.0486,0.0546,0.058,0.0562,0.0592,0.059,0.0569,0.0574,0.0513,0.0509,0.0438,0.0429,0.0394,0.0343,0.0311,0.0328,0.0244,0.0241,0.0218,0.0229,0.0245,0.0193,0.0234,0.0234,0.0234,0,0.0463,0.0506,0.0576,0.0639,0.0651,0.0678,0.0715,0.0737,0.0725,0.0712,0.0674,0.0617,0.0574,0.0509,0.0416,0.0429,0.0351,0.0297,0.0294,0.0249,0.0208,0.0181,0.0188,0.0231,0.0231,0.0231,0.0232,0,0.05,0.0571,0.0632,0.0651,0.0708,0.0739,0.0766,0.0776,0.0814,0.0794,0.0807,0.0726,0.0704,0.0593,0.0454,0.0439,0.0349,0.0317,0.0212,0.0208,0.0198,0.0194,0.0249,0.0249,0.0249,0.0249,0.025,0,0.0555,0.0608,0.0656,0.0692,0.0775,0.0794,0.0872,0.0887,0.0921,0.098,0.0878,0.0896,0.0725,0.0638,0.0496,0.0351,0.0376,0.0223,0.0196,0.0215,0.0213,0.0228,0.0226,0.0247,0.0248,0.0248,0.0249,0,0.0598,0.0626,0.0705,0.0771,0.0797,0.0859,0.0953,0.1014,0.1032,0.1105,0.1103,0.1034,0.0923,0.0736,0.0568,0.0425,0.0278,0.0216,0.0241,0.0218,0.0134,0.0136,0.0099,0.0098,0.0096,0.0095,0.0094,0,0.0631,0.0674,0.0756,0.0811,0.0846,0.0936,0.1009,0.1064,0.1137,0.1196,0.1241,0.1151,0.11,0.0826,0.0564,0.031,0.0275,0.015,0.012,0.0144,0.0121,0.0125,0.0128,0.0122,0.0121,0.0121,0.012,0,0.0694,0.0714,0.0773,0.0879,0.0961,0.1068,0.1172,0.1247,0.1328,0.1383,0.1442,0.1402,0.1149,0.089,0.0535,0.0361,0.0188,0.0132,0.0165,0.0157,0.0161,0.0139,0.0143,0.0116,0.0116,0.0117,0.0117,0.0117,0.0732,0.0781,0.085,0.0956,0.1057,0.1188,0.1281,0.1393,0.1514,0.1601,0.1576,0.1518,0.124,0.0777,0.0481,0.016,0.0177,0.0052,0.0055,0.0059,0.0072,0.0073,0.0014,0.0014,0.0014,0.0014,0.0014,0,0.0778,0.0836,0.093,0.1051,0.1165,0.1216,0.1387,0.1473,0.1611,0.167,0.1698,0.1419,0.1136,0.0809,0.0339,0.0065,0.0048,-0.0032,0.001,0.0017,0.0021,0.0034,-0.0035,-0.0036,-0.0037,-0.0038,0,0,0.0803,0.0889,0.0936,0.1116,0.1211,0.1364,0.1464,0.1587,0.1662,0.1699,0.166,0.1598,0.1218,0.0869,0.0501,0.023,0.0184,0.0172,0.024,0.0339,0.0348,0.0096,0.0126,0,0,0,0,0]}],[{"header":{"parameterUnit":"m.s-1","parameterCategory":2,"la1":30.2991,"la2":30.254,"lo1":-89.0895,"lo2":-89.0444,"dy":0.0017,"dx":0.0017,"nx":28,"ny":28,"refTime":"2024-12-16T09:00:00:Z","depth":"4","parameterNumber":2,"parameterNumberName":"U-component_of_CURRENTS"},"data":[0,0,0,0,0,0,0,0,0,0,0,0,0,0,0,0,0,0,0,0,0,0,0,0,0,0,0,0,0,0,0,0,0,0,0,0,0,0,0,0,0,0,0,0,0,0,0,0,0,0,0,0,0,0,0,0,0,0,0.1589,0.159,0,0.1635,0.1635,0.1636,0.1685,0.1686,0.1686,0.1687,0.1748,0.1748,0.1749,0,0,0,0,0,0,0,0,0,0,0,0,0,0.1572,0.1571,0.1589,0.159,0.1591,0.1635,0.1635,0.1636,0.1685,0.1686,0.1687,0.1688,0.1747,0.1748,0.1749,0,0,0,0,0,0,0,0,0,0,0,0,0,0.1593,0.1571,0.1589,0.1621,0.1625,0.1635,0.1635,0.1636,0.1685,0.1686,0.1687,0.1688,0.1747,0.1748,0.175,0.1733,0,0,0.1753,0.1754,0,0,0,0,0,0,0,0,0.1592,0.1594,0.1616,0.1619,0.1623,0.1657,0.1652,0.167,0.1684,0.166,0.1687,0.1689,0.1718,0.1722,0.1726,0.1736,0.1739,0.1754,0.1754,0.1755,0.1755,0,0,0,0,0,0,0,0.159,0.1592,0.1606,0.1616,0.1621,0.1643,0.1647,0.1655,0.1681,0.1663,0.1667,0.1673,0.172,0.1725,0.1728,0.174,0.1754,0.1755,0.1755,0.1756,0.186,0.1862,0,0,0,0,0,0,0.1584,0.159,0.1605,0.1608,0.1611,0.1642,0.1647,0.1643,0.1681,0.1688,0.1672,0.1675,0.1722,0.1726,0.173,0.1817,0.1755,0.1756,0.1757,0.1858,0.186,0.1862,0,0,0,0,0,0,0.1583,0.1584,0.1603,0.1602,0.1606,0.1641,0.1637,0.1644,0.1685,0.1688,0.1696,0.1711,0.1723,0.1728,0.1778,0.1816,0.1757,0.1758,0.1855,0.1859,0.1861,0.1924,0,0,0,0,0,0,0.1582,0.1584,0.1596,0.1601,0.1606,0.1631,0.1636,0.1644,0.1685,0.1691,0.1723,0.1728,0.1724,0.1776,0.1779,0.1817,0.1759,0.1853,0.1857,0.186,0.1919,0.1929,0.1937,0,0,0,0,0,0.1581,0.1582,0.1596,0.1599,0.1616,0.1632,0.1637,0.1665,0.1686,0.1706,0.1739,0.1729,0.1802,0.1779,0.1782,0.182,0.1851,0.1856,0.186,0.1915,0.1927,0.1936,0,0,0,0,0,0,0.1581,0.1587,0.1603,0.1607,0.1632,0.1641,0.1666,0.1685,0.1725,0.1745,0.175,0.1757,0.1813,0.181,0.1784,0.1863,0.1827,0.1832,0.1868,0.1878,0.1887,0.1889,0.176,0,0,0,0,0,0.1586,0.1597,0.1606,0.1621,0.1633,0.1659,0.1677,0.1698,0.1725,0.1746,0.177,0.18,0.1826,0.1849,0.1866,0.1907,0.1909,0.1937,0.1946,0.1953,0.1959,0.1994,0.2006,0.1877,0.1877,0.1877,0,0,0.1593,0.16,0.1608,0.1624,0.1648,0.1665,0.1674,0.1712,0.1743,0.1744,0.1808,0.183,0.1844,0.1893,0.1918,0.1901,0.1994,0.1959,0.1964,0.1967,0.2,0.2012,0.2023,0.188,0.188,0.1879,0,0,0.1599,0.1618,0.1627,0.1645,0.1684,0.1699,0.1717,0.175,0.1787,0.1841,0.1854,0.1904,0.1944,0.1963,0.1975,0.2042,0.2035,0.2057,0.2106,0.2141,0.2151,0.216,0.2187,0.2198,0.2065,0.2065,0.2065,0,0.1619,0.1619,0.1636,0.1649,0.1672,0.1716,0.1736,0.1772,0.1824,0.1859,0.1875,0.196,0.1975,0.2029,0.2062,0.2061,0.208,0.2063,0.2151,0.216,0.2168,0.2193,0.2205,0.2068,0.2068,0.2067,0.2067,0,0.1614,0.1635,0.1646,0.1676,0.1701,0.1734,0.1775,0.1824,0.188,0.1917,0.2003,0.2036,0.2088,0.2104,0.2107,0.218,0.2174,0.2153,0.212,0.2185,0.2208,0.2218,0.2073,0.2072,0.2071,0.207,0,0,0.1616,0.164,0.1654,0.1668,0.1724,0.1739,0.1804,0.1865,0.1919,0.1992,0.2063,0.2128,0.2168,0.2186,0.2204,0.2241,0.2321,0.2236,0.2236,0.2256,0.2406,0.2254,0.225,0.2322,0.2325,0.2326,0.24,0,0.1624,0.1643,0.166,0.17,0.1711,0.1768,0.1819,0.1886,0.1962,0.2042,0.2109,0.2184,0.2193,0.2239,0.2281,0.2312,0.2352,0.2303,0.2346,0.2347,0.2198,0.2258,0.2333,0.2408,0.241,0.2412,0.2413,0,0.1609,0.1628,0.1661,0.1704,0.1719,0.176,0.1856,0.1909,0.2024,0.2084,0.2179,0.2237,0.2329,0.2319,0.2415,0.239,0.2412,0.2425,0.2427,0.2268,0.2214,0.2329,0.2432,0.2431,0.2429,0.2428,0.2427,0,0.1581,0.1625,0.1656,0.1673,0.1732,0.1779,0.1833,0.1937,0.1999,0.2131,0.2193,0.2301,0.2378,0.2425,0.2483,0.2463,0.2568,0.2533,0.2413,0.2403,0.2489,0.2478,0.2591,0.2591,0.2591,0.2591,0.2591,0,0.1554,0.1579,0.1654,0.1668,0.1723,0.1775,0.1862,0.1926,0.2044,0.2112,0.2228,0.2292,0.2413,0.249,0.2513,0.2501,0.2598,0.2431,0.2413,0.2515,0.2507,0.2497,0.2485,0.2594,0.2593,0.2592,0.2592,0,0.1494,0.1546,0.1581,0.167,0.1705,0.1749,0.1869,0.1918,0.2041,0.2135,0.2185,0.2326,0.2414,0.2505,0.2589,0.2525,0.2531,0.2502,0.2625,0.2611,0.2336,0.2327,0.2362,0.2357,0.2353,0.235,0.2347,0,0.1455,0.1472,0.158,0.1607,0.1654,0.1736,0.1785,0.191,0.1961,0.2128,0.2153,0.2301,0.2377,0.238,0.2476,0.2507,0.2478,0.246,0.2376,0.2334,0.2314,0.2311,0.2307,0.2341,0.234,0.2339,0.2337,0,0.1384,0.1447,0.1483,0.1548,0.1607,0.1647,0.1732,0.1761,0.1895,0.2032,0.2077,0.2128,0.2221,0.2284,0.2336,0.2348,0.2454,0.2417,0.2424,0.2345,0.2308,0.2292,0.2293,0.2324,0.2326,0.2327,0.2328,0,0.1348,0.1355,0.1421,0.1461,0.1524,0.1524,0.1585,0.1637,0.1707,0.1891,0.1907,0.2051,0.2197,0.2203,0.2245,0.2254,0.2209,0.2119,0.2141,0.2158,0.2056,0.1977,0.1882,0,0,0,0,0,0.1297,0.1287,0.1318,0.1343,0.1397,0.1432,0.1523,0.1587,0.1736,0.1719,0.1808,0.1881,0.1941,0.2021,0.199,0.2152,0.2217,0.2103,0.2124,0.2246,0.2262,0.2161,0,0,0,0,0,0,0.1257,0.1283,0.1281,0.1237,0.1234,0.1269,0.1322,0.1417,0.142,0.1586,0.1638,0.1764,0.1864,0.195,0.1956,0.198,0.1951,0.2205,0.22,0.2237,0.2252,0.2265,0.2166,0,0,0,0,0]},{"header":{"parameterUnit":"m.s-1","parameterCategory":2,"la1":30.2991,"la2":30.254,"lo1":-89.0895,"lo2":-89.0444,"dy":0.0017,"dx":0.0017,"nx":28,"ny":28,"refTime":"2024-12-16T09:00:00:Z","depth":"4","parameterNumber":3,"parameterNumberName":"V-component_of_CURRENTS"},"data":[0,0,0,0,0,0,0,0,0,0,0,0,0,0,0,0,0,0,0,0,0,0,0,0,0,0,0,0,0,0,0,0,0,0,0,0,0,0,0,0,0,0,0,0,0,0,0,0,0,0,0,0,0,0,0,0,0,0,0.024,0.0239,0,0.0227,0.0227,0.0227,0.0212,0.0212,0.0212,0.0211,0.0201,0.0201,0.0201,0,0,0,0,0,0,0,0,0,0,0,0,0,0.0214,0.0215,0.024,0.0239,0.0239,0.0227,0.0227,0.0227,0.0212,0.0212,0.0211,0.0211,0.0201,0.0201,0.0201,0,0,0,0,0,0,0,0,0,0,0,0,0,0.0215,0.0215,0.024,0.0231,0.023,0.0227,0.0227,0.0227,0.0212,0.0212,0.0211,0.0211,0.0201,0.0201,0.0201,0.0204,0,0,0.02,0.02,0,0,0,0,0,0,0,0,0.0215,0.0216,0.0232,0.0232,0.0231,0.0222,0.0214,0.0219,0.0212,0.0218,0.0211,0.0211,0.0209,0.0208,0.0205,0.0204,0.0203,0.02,0.02,0.02,0.02,0,0,0,0,0,0,0,0.0215,0.0216,0.0234,0.0232,0.0231,0.0215,0.0216,0.0215,0.0214,0.0217,0.0217,0.0217,0.0208,0.0205,0.0205,0.0203,0.02,0.02,0.02,0.02,0.0204,0.0204,0,0,0,0,0,0,0.022,0.0216,0.0234,0.0233,0.0223,0.0216,0.0216,0.0224,0.0214,0.0213,0.0217,0.0216,0.0206,0.0205,0.0204,0.0221,0.02,0.02,0.02,0.0204,0.0204,0.0204,0,0,0,0,0,0,0.022,0.0222,0.0235,0.0225,0.0225,0.0217,0.0226,0.0224,0.0225,0.0214,0.0212,0.022,0.0205,0.0205,0.0207,0.022,0.02,0.02,0.0204,0.0204,0.0204,0.0245,0,0,0,0,0,0,0.022,0.0223,0.0233,0.0225,0.0226,0.0239,0.0226,0.0224,0.0226,0.0224,0.0216,0.0215,0.0205,0.0207,0.0207,0.0219,0.0199,0.0203,0.0204,0.0204,0.0243,0.0247,0.0249,0,0,0,0,0,0.0219,0.0237,0.0234,0.0236,0.024,0.024,0.0239,0.0231,0.0226,0.0231,0.0223,0.0215,0.0209,0.0208,0.0207,0.0219,0.0203,0.0204,0.0204,0.0242,0.0246,0.0249,0,0,0,0,0,0,0.0231,0.0237,0.0233,0.0252,0.0248,0.0238,0.0244,0.0236,0.0234,0.0234,0.0221,0.0219,0.0225,0.0215,0.0213,0.022,0.0204,0.0205,0.0233,0.0237,0.024,0.0251,0.0199,0,0,0,0,0,0.0239,0.0255,0.025,0.0265,0.0266,0.0255,0.0255,0.0249,0.0244,0.0243,0.0237,0.0229,0.0226,0.0226,0.022,0.0228,0.0205,0.0233,0.0237,0.0239,0.0247,0.0218,0.0219,0.0206,0.0206,0.0206,0,0,0.0247,0.0253,0.0261,0.0269,0.0266,0.0276,0.0255,0.0259,0.027,0.0243,0.0257,0.0242,0.0229,0.0235,0.0237,0.023,0.0229,0.024,0.0243,0.0248,0.0218,0.0219,0.022,0.0206,0.0206,0.0206,0,0,0.027,0.0277,0.0297,0.03,0.0301,0.0295,0.0298,0.0292,0.0291,0.0297,0.028,0.0271,0.027,0.0261,0.0257,0.0274,0.0245,0.0271,0.0299,0.0271,0.0272,0.0272,0.0238,0.0235,0.0274,0.0274,0.0274,0,0.0279,0.0307,0.03,0.032,0.0331,0.0307,0.0329,0.0324,0.0319,0.0323,0.0308,0.0296,0.0283,0.0288,0.0291,0.0282,0.0257,0.0288,0.0275,0.0275,0.0275,0.024,0.0236,0.0276,0.0276,0.0276,0.0276,0,0.0315,0.034,0.0353,0.0373,0.038,0.0395,0.0389,0.0394,0.0386,0.0377,0.0376,0.0349,0.0343,0.0333,0.0319,0.0315,0.0294,0.0281,0.0267,0.0279,0.0241,0.0236,0.0279,0.0279,0.0278,0.0277,0,0,0.0332,0.0372,0.0377,0.0402,0.0413,0.0423,0.0443,0.0452,0.0469,0.0445,0.0459,0.0434,0.0409,0.0402,0.0376,0.0348,0.0319,0.0318,0.0315,0.0287,0.025,0.0225,0.0217,0.0302,0.0301,0.0301,0.0221,0,0.0363,0.0416,0.0426,0.0475,0.0502,0.0499,0.0523,0.0526,0.0518,0.0523,0.0483,0.0483,0.0439,0.0436,0.04,0.0344,0.031,0.0341,0.024,0.0237,0.0216,0.0212,0.03,0.0218,0.0217,0.0216,0.0215,0,0.0398,0.0431,0.0487,0.054,0.0551,0.0577,0.0611,0.063,0.0625,0.0619,0.0597,0.0559,0.0522,0.0481,0.0382,0.0403,0.0333,0.0278,0.0273,0.0236,0.0205,0.0204,0.0206,0.0207,0.0208,0.0208,0.0209,0,0.0417,0.0476,0.0526,0.0544,0.0593,0.0623,0.0649,0.066,0.069,0.068,0.0687,0.0625,0.0605,0.0507,0.0389,0.0386,0.0269,0.0252,0.016,0.0157,0.0185,0.0186,0.0179,0.0179,0.0179,0.018,0.018,0,0.0451,0.0494,0.0544,0.0574,0.0641,0.0661,0.0727,0.074,0.0766,0.0799,0.074,0.0738,0.061,0.0524,0.0408,0.0268,0.0281,0.0164,0.0136,0.0203,0.0206,0.0181,0.0183,0.0177,0.0177,0.0178,0.0178,0,0.047,0.0502,0.0565,0.0627,0.0656,0.0704,0.0792,0.0836,0.0849,0.0889,0.089,0.0827,0.0713,0.0568,0.0408,0.0303,0.0167,0.0114,0.0194,0.0172,0.0067,0.0071,0.0005,0.0004,0.0002,0.0001,0.0001,0,0.0484,0.0518,0.0602,0.0648,0.0684,0.0764,0.0826,0.0876,0.0923,0.0938,0.0955,0.0866,0.0798,0.0559,0.04,0.0171,0.0136,0.006,0.0061,0.007,0.005,0.0056,0.0062,-0.0002,-0.0002,-0.0002,-0.0003,0,0.0509,0.0537,0.0587,0.0681,0.0756,0.0846,0.0932,0.0971,0.1022,0.1033,0.1004,0.0879,0.0749,0.0559,0.038,0.0216,0.0105,0.0046,0.0047,0.0048,0.0061,0.0044,0.0051,-0.0007,-0.0006,-0.0006,-0.0006,0,0.0522,0.0558,0.0624,0.0709,0.0804,0.0896,0.0945,0.1002,0.105,0.1057,0.1044,0.0902,0.0827,0.0582,0.0418,0.0251,0.0205,0.0143,0.0139,0.0142,0.0199,0.0237,0.02,0,0,0,0,0,0.053,0.0574,0.065,0.0742,0.0837,0.0899,0.1003,0.1044,0.1087,0.1072,0.1061,0.0936,0.0694,0.0599,0.0428,0.038,0.0168,0.0172,0.0093,-0.0031,-0.0026,0.0015,0,0,0,0,0,0,0.0534,0.0601,0.0643,0.0755,0.0823,0.0936,0.1006,0.104,0.1036,0.1046,0.0928,0.0873,0.0647,0.0786,0.0417,0.0368,0.029,0.0066,0.0062,-0.0034,-0.003,-0.0026,0.0019,0,0,0,0,0]}]]